Ithaca, NY

12:12 PM EDT on March 26, 2017 (GMT -0400)
Tompkins County

Weather History for KITH - April, 2013

Change the Weather History Date:

Sunday, April 7, 2013

  Actual Average Record
Temperature  
Mean Temperature 53 °F -  
Max Temperature 64 °F 48 °F 83 °F (1929)
Min Temperature 41 °F 30 °F 11 °F (1982)
Degree Days  
Heating Degree Days 12    
Growing Degree Days 3 (Base 50)    
Moisture  
Dew Point 26 °F    
Average Humidity 39    
Maximum Humidity 70    
Minimum Humidity 29    
Precipitation  
Precipitation 0.00 in - - ()
Sea Level Pressure  
Sea Level Pressure 29.96 in    
Wind  
Wind Speed 16 mph (South)    
Max Wind Speed 22 mph    
Max Gust Speed 33 mph    
Visibility 10 miles    
Events Rain    
Averages and records for this station are not official NWS values.
T = Trace of Precipitation, MM = Missing Value Source: NWS Daily Summary

Daily Weather History Graph

Daily Weather History Graph

Search for Another Location

Airport or City:

Trip Planner

Search our weather history database for the weather conditions in past years. The results will help you decide how hot, cold, wet, or windy it might be!

Date:

Astronomy

Apr. 07, 2013 Rise Set
Actual Time 6:37 AM EDT 7:38 PM EDT
Civil Twilight 6:08 AM EDT 8:07 PM EDT
Nautical Twilight 5:34 AM EDT 8:42 PM EDT
Astronomical Twilight 4:58 AM EDT 9:17 PM EDT
Moon 4:57 AM EDT (4/7) 5:06 PM EDT (4/7)
Length of Visible Light 13h 58m
Length of Day
13h 01m
Waning Crescent, 8% of the Moon is Illuminated
Apr 7
Waning Crescent
Apr 10
New
Apr 18
First Quarter
Apr 25
Full
May 2
Last Quarter

Hourly Weather History & Observations

Time (EDT) Temp. Windchill Dew Point Humidity Pressure Visibility Wind Dir Wind Speed Gust Speed Precip Events Conditions
12:56 AM 43.0 °F 35.7 °F 14.0 °F 31% 30.14 in 10.0 mi SSE 15.0 mph 23.0 mph 0.00 in Rain Light Rain
1:56 AM 43.0 °F 35.1 °F 13.1 °F 30% 30.11 in 10.0 mi South 17.3 mph 23.0 mph 0.00 in   Overcast
2:56 AM 43.0 °F 36.4 °F 14.0 °F 31% 30.08 in 10.0 mi South 12.7 mph - N/A   Overcast
3:56 AM 43.9 °F 36.8 °F 16.2 °F 33% 30.06 in 10.0 mi South 15.0 mph - N/A   Overcast
4:56 AM 43.9 °F 35.9 °F 17.1 °F 34% 30.04 in 10.0 mi SSE 18.4 mph 23.0 mph 0.00 in   Overcast
5:56 AM 43.9 °F 35.2 °F 19.0 °F 37% 30.00 in 10.0 mi South 21.9 mph - 0.00 in   Overcast
6:20 AM 44.6 °F 38.1 °F 19.4 °F 37% 30.00 in 10.0 mi South 13.8 mph - N/A   Overcast
6:56 AM 43.9 °F 35.2 °F 20.1 °F 39% 30.01 in 10.0 mi South 21.9 mph 26.5 mph N/A   Mostly Cloudy
7:56 AM 43.9 °F 35.2 °F 21.0 °F 40% 30.02 in 10.0 mi South 21.9 mph 28.8 mph N/A   Mostly Cloudy
8:56 AM 45.0 °F 36.9 °F 24.1 °F 44% 29.99 in 10.0 mi South 20.7 mph 29.9 mph N/A   Mostly Cloudy
9:56 AM 45.9 °F 37.8 °F 24.1 °F 42% 29.96 in 10.0 mi South 21.9 mph 33.4 mph N/A   Mostly Cloudy
10:56 AM 50.0 °F - 25.2 °F 38% 29.94 in 10.0 mi South 20.7 mph 32.2 mph N/A   Mostly Cloudy
11:56 AM 52.9 °F - 26.1 °F 35% 29.91 in 10.0 mi South 11.5 mph 21.9 mph N/A   Mostly Cloudy
12:56 PM 59.9 °F - 28.0 °F 30% 29.86 in 10.0 mi South 19.6 mph 31.1 mph N/A   Clear
1:56 PM 63.0 °F - 30.0 °F 29% 29.85 in 10.0 mi SSW 20.7 mph 28.8 mph N/A   Clear
2:56 PM 61.9 °F - 31.1 °F 31% 29.84 in 10.0 mi SSW 18.4 mph 24.2 mph N/A   Scattered Clouds
3:56 PM 63.9 °F - 32.0 °F 30% 29.83 in 10.0 mi SSW 19.6 mph 28.8 mph N/A   Clear
4:56 PM 63.9 °F - 32.9 °F 31% 29.82 in 10.0 mi South 18.4 mph 29.9 mph N/A   Partly Cloudy
5:56 PM 63.9 °F - 32.9 °F 31% 29.83 in 10.0 mi South 16.1 mph 23.0 mph N/A   Scattered Clouds
6:56 PM 63.0 °F - 34.0 °F 34% 29.84 in 10.0 mi South 12.7 mph - N/A   Mostly Cloudy
7:56 PM 59.9 °F - 34.9 °F 39% 29.89 in 10.0 mi SSW 4.6 mph - N/A   Mostly Cloudy
8:56 PM 57.9 °F - 41.0 °F 53% 29.94 in 10.0 mi NNE 6.9 mph - N/A   Mostly Cloudy
9:56 PM 50.0 °F - 36.9 °F 61% 30.01 in 10.0 mi NNE 8.1 mph - N/A   Overcast
10:56 PM 45.9 °F 43.6 °F 34.9 °F 66% 30.03 in 10.0 mi NE 4.6 mph - N/A   Scattered Clouds
11:56 PM 41.9 °F 40.0 °F 32.9 °F 70% 30.04 in 10.0 mi NNE 3.5 mph - N/A   Clear